Location: Baia de Cri?
(46.1667°N, 22.7167°E)
Time: 09:07:15
(UTC+00:00)

CZ-2D R/B - Pass Details

Date: 15 January 2026
Orbit: 389 x 399 km, 97.4° (Epoch: 9 February)

Event Time Altitude Azimuth Distance (km) Brightness Sun altitude
Rises 05:19:54 0° 9° (N) 2,330 6.4 -8.3°
Reaches altitude 10° 05:21:54 10° 7° (N) 1,462 5.3 -7.9°
Maximum altitude 05:25:00 65° 285° (WNW) 445 2.6 -7.4°
Drops below altitude 10° 05:28:02 10° 203° (SSW) 1,436 5.5 -7.0°
Sets 05:29:59 0° 200° (SSW) 2,284 6.5 -6.7°
